STARLINK-4588, 53641

Orbit data source: Space-Track

STARLINK-4588, 53641 is a payload satellite owned by SpaceX/Seattle (US) in LEO that was launched on Sun, 28 Aug 2022 UTC via an FALCON 9 launch vehicle from the Air Force Eastern Test Range (AFETR). Payload-class satellites include a variety of spacecraft equipped with specific instruments for various scientific and technological missions. These include communications satellites like Starlink; space stations such as the ISS; scientific satellites like the Hubble; Earth observation satellites from companies like Planet Labs, Umbra, and HawkEye 360; GPS; miniature CubeSats for education and research; and military/defense satellites.

Loading next visibility...
Identifier
53641, 2022-104BF
Orbit
LEO
Country
Flag of USUS
Related business
Manufacturer
SpaceX/Seattle
Mission
Operational Commercial Communications
Bus & Motor
STARLINK, Unknown motor
Mass
300 kg wet, ~290 kg dry
Launch date (UTC)
2022-08-28 (3 years ago)
Launch vehicle
FALCON 9
Launch site
Air Force Eastern Test Range (AFETR)
Object type
Payload
Rocket body
Debris
Shape & HBR
Box + 1 Pan, 10.1 m
Radar Cross Section
13.562 m², Large (>1 m²)

Expand to show TLE details & history
Last TLE update: 17 hours ago

TLE from 17 hours ago
0 STARLINK-4588
1 53641U 22104BF  25287.07709303  .00000222  00000-0  32068-4 0  9990
2 53641  53.2150 162.1497 0001390  86.0063 274.1088 15.08841417174093
Epoch: 2025-10-14T01:51Z
TLE epoch observation values (Epoch: 2025-10-14T01:51:00.837Z)
Latitude
-0.00004°
Longitude
111.52548°
Altitude
540.568 km
Speed
7.593 km/s
True Right ascension
10h 48m 35s
True Declination
0° 00' 00"
Sunlit
Object was in daylight at epoch
Visualization orbit readout
Latitude
Unknown
Longitude
Unknown
Altitude
Unknown
Speed
Unknown
Apparent Right ascension
Unknown
Apparent Declination
Unknown
Sunlit
N/A
Visualization observer readout
Local Sidereal Time
13:50:14
Azimuth
Unknown
Elevation
Unknown
Doppler factor
Unknown
Orbital elements
Apogee altitude
540.946 km
Perigee altitude
539.023 km
Semi-major axis
6,918.121 km
Eccentricity
0.00014
Inclination
53.215°
RAAN
162.1497°
Arg. of periapsis
86.0063°
True anomaly
274.09291°
Mean anomaly
274.1088°
Eccentric anomaly
274.10086°
Mean motion
3.77191 °/min
Orbital period
95.44 mins
BSTAR
0.000032068
Loading maneuver chart data...
Computing Atmospheric mass density...
Loading historical data...
Loading historical data...
Loading historical data...
Loading historical data...
Loading historical data...
Loading historical data...
Loading historical data...

Documentation

Showing up to 5 results
|